Location: Iesi
(43.5167°N, 13.2333°E)
Time: 18:11:36
(UTC+00:00)

MetOp-A - Pass Details

Date: 08 August 2020
Orbit: 819 x 821 km, 98.5° (Epoch: 23 September)

Event Time Altitude Azimuth Distance (km) Brightness Sun altitude
Rises 19:06:30 0° 166° (SSE) 3,339 6.9 -8.3°
Reaches altitude 10° 19:08:50 10° 167° (SSE) 2,410 6.2 -8.7°
Maximum altitude 19:14:12 85° 257° (WSW) 831 4.2 -9.5°
Drops below altitude 10° 19:19:35 10° 345° (NNW) 2,427 7.4 -10.3°
Sets 19:21:57 0° 346° (NNW) 3,364 8.1 -10.7°
